Preview of NWS' New Version of Forecast
This preview is not operational and should not be used for support decisions.

Regional Weather Roundup (RWR)

Issued by National Weather Service (NWS)

                            
000
ASUS43 KTOP 250359
RWRKS 

WEATHER ROUNDUP FOR KANSAS
NATIONAL WEATHER SERVICE GOODLAND KS
1100 PM CDT MON JUN 24 2019

NOTE:  "FAIR" INDICATES FEW OR NO CLOUDS BELOW 12,000 FEET WITH NO
SIGNIFICANT WEATHER AND/OR OBSTRUCTIONS TO VISIBILITY.

KSZ001>006-013>018-027>032-041>047-250500-
NORTHWEST KANSAS
  
CITY           SKY/WX    TMP DP  RH WIND       PRES   REMARKS
GOODLAND       CLEAR     74  40  29 SW13      29.88R                  
HAYS           CLEAR     68  56  65 S12       29.84R                  
HILL CITY      CLEAR     71  51  49 SW8       29.82R                  
RUSSELL        CLEAR     69  55  60 S10       29.82R                  
$$

KSZ061>065-074>080-084>089-250500-
SOUTHWEST KANSAS
  
CITY           SKY/WX    TMP DP  RH WIND       PRES   REMARKS
DODGE CITY     CLEAR     71  54  54 S13       29.91R                  
GARDEN CITY    CLEAR     66  57  72 SE8       29.90R                  
GREAT BEND     CLEAR     71  57  61 S13       29.86R                  
LIBERAL        CLEAR     69  58  67 SE13      29.92R                  
$$

KSZ066>073-081>083-090>101-250500-
SOUTHEAST KANSAS
  
CITY           SKY/WX    TMP DP  RH WIND       PRES   REMARKS
CHANUTE        CLEAR     67  60  78 S8        29.92R                  
COFFEYVILLE    CLEAR     69  63  81 CALM      29.92R                  
HUTCHINSON     CLEAR     69  58  67 MISG      29.86R                  
MEDICINE LODGE   N/A     71  57  61 S8        29.90R                  
NEWTON         CLEAR     70  59  68 S12       29.89R                  
PARSONS        CLEAR     67  63  87 SE3       29.93R                  
WICHITA INTL   CLEAR     72  57  59 S13       29.89R                  
WICHITA JABRA  CLEAR     71  58  63 S13       29.89R                  
WICHITA MCCONL CLEAR     72  58  60 SE12      29.90R                  
WINFIELD       CLEAR     69  60  73 S9        29.93R                  
$$

KSZ007>012-019>026-033>040-048>060-102>105-250500-
NORTHEAST KANSAS
  
CITY           SKY/WX    TMP DP  RH WIND       PRES   REMARKS
CONCORDIA      CLEAR     74  59  59 S16G25    29.80R                  
EMPORIA        CLEAR     69  61  75 S12       29.88R                  
LAWRENCE       CLEAR     66  61  84 SE3       29.86R                  
MANHATTAN      CLEAR     71  59  65 S5        29.83R                  
OLATHE IND     CLEAR     65  60  84 S6        29.90R                  
OLATHE EXE     CLEAR     67  60  78 S6        29.89R                  
SALINA         CLEAR     68  59  73 S9        29.83R                  
TOPEKA BILLARD CLEAR     72  59  63 S9        29.85R                  
TOPEKA FORBES  CLEAR     69  60  73 S8        29.86R                  
$$